Location: Newark
(41.0400°S, 62.7845°W)
Time: 23:33:29
(UTC+00:00)

Courier 1B Rocket - Pass Details

Date: 06 December 2021
Orbit: 920 x 1202 km, 28.2° (Epoch: 28 January)

Event Time Altitude Azimuth Distance (km) Brightness Sun altitude
Rises 15:55:39 0° 289° (WNW) 4,000 8.3 71.5°
Reaches altitude 10° 15:58:45 10° 299° (WNW) 3,074 7.9 71.5°
Maximum altitude 16:05:18 31° 357° (N) 1,953 7.5 71.5°
Drops below altitude 10° 16:11:59 10° 56° (NE) 3,139 7.9 71.4°
Sets 16:15:12 0° 65° (ENE) 4,097 8.3 71.3°
